VIR8 KLAX-EGLL

Flight info

Callsign VIR8
Flight time N/A
Altitude 33000
Route OSHNN1 BEALE Q842 WINEN DCT KU60O DCT KU75Q DCT KU03S DCT KATEN DCT DURUR Q817 KENRU/N0490F350 Q827 YYQ DCT YZS DCT 65N080W 66N070W/M083F350 DCT EPMAN/M083F370 DCT 67N050W 67N040W 6630N03000W 65N020W DCT RATSU/N0472F370 DCT BARKU DCT AKOMU DCT VAMEB DCT NUGRA
Aircraft A346/H-SDE2E3FGHIJ3J4J5M1RWXY/LB1D1

Departure

Time 2026-04-25 02:41
Airport Los Angeles International Airport (KLAX)

Arrival

Time N/A
Airport London Heathrow Airport (EGLL)
Time Latitude Longitude Altitude Speed Heading
2026-04-25 02:06 33.94261 -118.41120 101 ft 0 kts 83°
2026-04-25 02:26 33.94261 -118.41122 101 ft 2 kts 83°
2026-04-25 02:27 33.94258 -118.41153 101 ft 4 kts 83°
2026-04-25 02:27 33.94255 -118.41179 101 ft 4 kts 86°
2026-04-25 02:27 33.94258 -118.41204 101 ft 4 kts 117°
2026-04-25 02:27 33.94269 -118.41219 101 ft 4 kts 157°
2026-04-25 02:28 33.94291 -118.41224 101 ft 4 kts 173°
2026-04-25 02:28 33.94309 -118.41227 101 ft 4 kts 173°
2026-04-25 02:28 33.94320 -118.41229 101 ft 0 kts 173°
2026-04-25 02:30 33.94319 -118.41229 101 ft 1 kts 173°
2026-04-25 02:30 33.94305 -118.41227 102 ft 3 kts 173°
2026-04-25 02:31 33.94274 -118.41222 103 ft 6 kts 173°
2026-04-25 02:31 33.94224 -118.41214 101 ft 9 kts 172°
2026-04-25 02:31 33.94157 -118.41203 103 ft 11 kts 172°
2026-04-25 02:31 33.94076 -118.41190 101 ft 12 kts 172°
2026-04-25 02:32 33.93986 -118.41175 102 ft 14 kts 172°
2026-04-25 02:32 33.93890 -118.41162 101 ft 14 kts 173°
2026-04-25 02:32 33.93799 -118.41143 102 ft 12 kts 148°
2026-04-25 02:32 33.93772 -118.41049 101 ft 13 kts 84°
2026-04-25 02:33 33.93780 -118.40973 101 ft 0 kts 81°
2026-04-25 02:33 33.93782 -118.40960 101 ft 3 kts 81°
2026-04-25 02:33 33.93786 -118.40928 101 ft 5 kts 82°
2026-04-25 02:34 33.93792 -118.40871 102 ft 9 kts 83°
2026-04-25 02:34 33.93801 -118.40783 103 ft 12 kts 83°
2026-04-25 02:34 33.93811 -118.40672 104 ft 15 kts 84°
2026-04-25 02:34 33.93822 -118.40541 104 ft 17 kts 84°
2026-04-25 02:35 33.93837 -118.40395 106 ft 18 kts 83°
2026-04-25 02:35 33.93855 -118.40237 104 ft 19 kts 83°
2026-04-25 02:35 33.93872 -118.40060 106 ft 21 kts 83°
2026-04-25 02:35 33.93891 -118.39867 106 ft 24 kts 82°
2026-04-25 02:36 33.93913 -118.39660 104 ft 21 kts 84°
2026-04-25 02:36 33.93933 -118.39471 103 ft 24 kts 83°
2026-04-25 02:36 33.93955 -118.39253 102 ft 26 kts 83°
2026-04-25 02:36 33.93977 -118.39032 102 ft 27 kts 83°
2026-04-25 02:37 33.94000 -118.38803 104 ft 24 kts 83°
2026-04-25 02:37 33.94020 -118.38617 103 ft 23 kts 82°
2026-04-25 02:37 33.94033 -118.38505 104 ft 8 kts 82°
2026-04-25 02:37 33.94034 -118.38494 104 ft 0 kts 83°
2026-04-25 02:38 33.94038 -118.38457 105 ft 12 kts 83°
2026-04-25 02:38 33.94050 -118.38336 105 ft 15 kts 83°
2026-04-25 02:38 33.94063 -118.38203 103 ft 16 kts 83°
2026-04-25 02:38 33.94076 -118.38072 101 ft 8 kts 83°
2026-04-25 02:39 33.94076 -118.38065 101 ft 2 kts 85°
2026-04-25 02:39 33.94075 -118.38041 101 ft 4 kts 103°
2026-04-25 02:39 33.94051 -118.38012 102 ft 6 kts 149°
2026-04-25 02:39 33.94003 -118.38001 103 ft 7 kts 208°
2026-04-25 02:40 33.93981 -118.38057 102 ft 2 kts 261°
2026-04-25 02:40 33.93980 -118.38061 102 ft 0 kts 262°
2026-04-25 02:40 33.93967 -118.38186 106 ft 41 kts 262°
2026-04-25 02:40 33.93905 -118.38799 104 ft 105 kts 263°
2026-04-25 02:41 33.93788 -118.39933 108 ft 161 kts 263°
2026-04-25 02:41 33.93624 -118.41448 203 ft 197 kts 260°
2026-04-25 02:41 33.93400 -118.43117 792 ft 203 kts 261°
2026-04-25 02:41 33.93194 -118.44825 1546 ft 206 kts 261°
2026-04-25 02:42 33.92727 -118.46465 2393 ft 207 kts 239°
2026-04-25 02:42 33.91870 -118.47929 2815 ft 221 kts 232°
2026-04-25 02:42 33.90866 -118.49443 3151 ft 237 kts 231°
2026-04-25 02:42 33.89755 -118.51015 3475 ft 254 kts 230°
2026-04-25 02:43 33.88581 -118.52656 3951 ft 263 kts 230°
2026-04-25 02:43 33.87376 -118.54352 4539 ft 269 kts 229°
2026-04-25 02:43 33.85898 -118.55733 5160 ft 273 kts 201°
2026-04-25 02:43 33.84013 -118.56033 5856 ft 276 kts 172°
2026-04-25 02:44 33.82128 -118.55527 6540 ft 279 kts 168°
2026-04-25 02:44 33.80237 -118.54963 7129 ft 282 kts 169°
2026-04-25 02:44 33.78312 -118.54412 7727 ft 286 kts 169°
2026-04-25 02:44 33.76365 -118.53875 8337 ft 289 kts 170°
2026-04-25 02:45 33.74378 -118.53334 8958 ft 291 kts 170°
2026-04-25 02:45 33.72388 -118.52795 9552 ft 294 kts 171°
2026-04-25 02:45 33.70467 -118.51891 10079 ft 305 kts 147°
2026-04-25 02:45 33.69012 -118.49977 10463 ft 321 kts 119°
2026-04-25 02:46 33.68182 -118.47410 10744 ft 336 kts 110°
2026-04-25 02:46 33.67455 -118.44677 10993 ft 350 kts 109°
2026-04-25 02:46 33.66679 -118.41839 11238 ft 364 kts 110°
2026-04-25 02:46 33.65837 -118.38901 11482 ft 378 kts 111°
2026-04-25 02:47 33.65021 -118.35829 11734 ft 393 kts 105°
2026-04-25 02:47 33.64519 -118.32460 11982 ft 408 kts 96°